Orlando, FL

10:21 PM EDT on April 23, 2017 (GMT -0400)
Executive

Weather History for KORL - May, 2014

Change the Weather History Date:

Monday, May 26, 2014

  Actual Average Record
Temperature  
Mean Temperature 78 °F -  
Max Temperature 88 °F 87 °F 97 °F (2000)
Min Temperature 69 °F 68 °F 63 °F (2013)
Cooling Degree Days 13    
Growing Degree Days 28 (Base 50)    
Moisture  
Dew Point 69 °F    
Average Humidity 79    
Maximum Humidity 93    
Minimum Humidity 53    
Precipitation  
Precipitation 0.72 in - - ()
Sea Level Pressure  
Sea Level Pressure 30.16 in    
Wind  
Wind Speed 10 mph (ESE)    
Max Wind Speed 31 mph    
Max Gust Speed 46 mph    
Visibility 8 miles    
Events Rain , Thunderstorm    
Averages and records for this station are not official NWS values.
T = Trace of Precipitation, MM = Missing Value Source: NWS Daily Summary

Daily Weather History Graph

Daily Weather History Graph

Search for Another Location

Airport or City:

Trip Planner

Search our weather history database for the weather conditions in past years. The results will help you decide how hot, cold, wet, or windy it might be!

Date:

Astronomy

May. 26, 2014 Rise Set
Actual Time 6:29 AM EDT 8:15 PM EDT
Civil Twilight 6:03 AM EDT 8:41 PM EDT
Nautical Twilight 5:31 AM EDT 9:13 PM EDT
Astronomical Twilight 4:58 AM EDT 9:46 PM EDT
Moon 4:58 AM EDT (5/26) 6:26 PM EDT (5/26)
Length of Visible Light 14h 38m
Length of Day
13h 45m
Waning Crescent, 5% of the Moon is Illuminated
May 26
Waning Crescent
May 28
New
Jun 5
First Quarter
Jun 13
Full
Jun 19
Last Quarter

Hourly Weather History & Observations

Time (EDT) Temp. Heat Index Dew Point Humidity Pressure Visibility Wind Dir Wind Speed Gust Speed Precip Events Conditions
12:53 AM 75.9 °F - 72.0 °F 87% 30.15 in 10.0 mi East 4.6 mph - N/A   Clear
1:53 AM 75.9 °F - 72.0 °F 87% 30.14 in 10.0 mi ENE 9.2 mph - N/A   Clear
2:53 AM 75.0 °F - 72.0 °F 90% 30.14 in 9.0 mi ENE 5.8 mph - N/A   Clear
3:53 AM 75.0 °F - 72.0 °F 90% 30.14 in 9.0 mi East 4.6 mph - N/A   Clear
4:53 AM 73.9 °F - 72.0 °F 93% 30.13 in 9.0 mi ESE 4.6 mph - N/A   Clear
5:53 AM 73.9 °F - 71.1 °F 91% 30.14 in 10.0 mi East 5.8 mph - N/A   Clear
6:53 AM 75.0 °F - 72.0 °F 90% 30.16 in 9.0 mi East 4.6 mph - N/A   Clear
7:53 AM 77.0 °F - 73.0 °F 88% 30.18 in 9.0 mi ESE 4.6 mph - N/A   Clear
8:53 AM 80.1 °F 84.2 °F 73.0 °F 79% 30.19 in 10.0 mi ESE 9.2 mph - N/A   Clear
9:53 AM 80.1 °F 83.6 °F 71.1 °F 74% 30.20 in 10.0 mi ESE 9.2 mph - N/A   Partly Cloudy
10:53 AM 84.0 °F 89.0 °F 71.1 °F 65% 30.21 in 10.0 mi Variable 6.9 mph - N/A   Scattered Clouds
11:53 AM 86.0 °F 89.4 °F 68.0 °F 55% 30.21 in 10.0 mi ENE 6.9 mph - N/A   Partly Cloudy
12:53 PM 87.1 °F 90.6 °F 68.0 °F 53% 30.19 in 10.0 mi East 4.6 mph - N/A   Scattered Clouds
1:49 PM 84.2 °F 87.3 °F 68.0 °F 58% 30.17 in 10.0 mi East 12.7 mph - N/A Thunderstorm Thunderstorm
1:53 PM 82.0 °F 85.9 °F 70.0 °F 67% 30.18 in 2.5 mi SSE 10.4 mph - 0.07 in Rain , Thunderstorm Heavy Thunderstorms and Rain
2:01 PM 75.9 °F - 69.1 °F 79% 30.16 in 1.2 mi South 21.9 mph 29.9 mph 0.08 in Rain , Thunderstorm Heavy Thunderstorms and Rain
2:09 PM 73.0 °F - 66.0 °F 79% 30.16 in 7.0 mi SW 21.9 mph 28.8 mph 0.09 in Rain , Thunderstorm Light Thunderstorms and Rain
2:53 PM 73.0 °F - 66.0 °F 79% 30.16 in 7.0 mi SW 16.1 mph - 0.09 in Thunderstorm Thunderstorm
3:02 PM 73.0 °F - 64.9 °F 76% 30.15 in 1.5 mi SSW 31.1 mph 46.0 mph 0.11 in Rain , Thunderstorm Heavy Thunderstorms and Rain
3:12 PM 71.1 °F - 64.9 °F 81% 30.15 in 0.8 mi South 31.1 mph 41.4 mph 0.23 in Rain , Thunderstorm Heavy Thunderstorms and Rain
3:25 PM 72.0 °F - 63.0 °F 73% 30.16 in 1.0 mi SSE 26.5 mph 46.0 mph 0.44 in Rain , Thunderstorm Heavy Thunderstorms and Rain
3:32 PM 69.1 °F - 63.0 °F 81% 30.17 in 2.5 mi SE 23.0 mph 40.3 mph 0.45 in Rain , Thunderstorm Light Thunderstorms and Rain
3:39 PM 69.1 °F - 64.0 °F 84% 30.15 in 7.0 mi ESE 23.0 mph 32.2 mph 0.45 in Rain , Thunderstorm Light Thunderstorms and Rain
3:53 PM 73.9 °F - 64.9 °F 73% 30.17 in 3.0 mi SE 19.6 mph - 0.52 in Rain , Thunderstorm Heavy Thunderstorms and Rain
3:57 PM 72.0 °F - 66.0 °F 81% 30.15 in 1.8 mi SE 15.0 mph 25.3 mph 0.03 in Rain , Thunderstorm Heavy Thunderstorms and Rain
4:02 PM 73.0 °F - 66.9 °F 81% 30.16 in 2.0 mi ESE 18.4 mph 25.3 mph 0.04 in Rain , Thunderstorm Rain
4:11 PM 75.0 °F - 69.1 °F 82% 30.15 in 8.0 mi East 12.7 mph - 0.04 in Rain , Thunderstorm Light Thunderstorms and Rain
4:24 PM 75.0 °F - 68.0 °F 79% 30.16 in 10.0 mi SSE 16.1 mph - 0.04 in Thunderstorm Overcast
4:53 PM 75.9 °F - 66.0 °F 71% 30.14 in 10.0 mi ESE 16.1 mph - 0.04 in   Partly Cloudy
5:53 PM 80.1 °F 82.9 °F 69.1 °F 69% 30.14 in 10.0 mi East 9.2 mph - N/A   Clear
6:53 PM 80.1 °F 83.6 °F 71.1 °F 74% 30.16 in 10.0 mi SSE 5.8 mph - N/A   Mostly Cloudy
7:31 PM 78.1 °F - 72.0 °F 81% 30.15 in 10.0 mi SE 9.2 mph - N/A   Mostly Cloudy
7:53 PM 78.1 °F - 71.1 °F 79% 30.16 in 10.0 mi ESE 6.9 mph - N/A   Partly Cloudy
8:53 PM 75.9 °F - 71.1 °F 85% 30.17 in 10.0 mi ESE 4.6 mph - N/A   Clear
9:53 PM 73.9 °F - 70.0 °F 87% 30.19 in 10.0 mi ESE 5.8 mph - N/A   Clear
10:53 PM 73.9 °F - 70.0 °F 87% 30.19 in 10.0 mi East 4.6 mph - N/A   Clear
11:53 PM 73.9 °F - 70.0 °F 87% 30.19 in 10.0 mi East 3.5 mph - N/A   Clear